Location: Unspecified
(0.0000°N, 0.0000°E)
Time: 18:04:03
(UTC+00:00)

A-11 Canister half - Pass Details

Date: 06 August 2021
Orbit: 1526 x 1683 km, 47.3° (Epoch: 25 September)

Event Time Altitude Azimuth Distance (km) Brightness Sun altitude
Rises 18:52:37 0° 317° (NW) 4,779 12.7 -11.2°
Reaches altitude 10° 18:55:44 10° 315° (NW) 3,775 12.1 -11.9°
Maximum altitude 19:05:15 76° 231° (SW) 1,585 9.1 -14.2°
Enters shadow 19:14:25 11° 146° (SE) 3,646 10.5 -16.4°
